False Pass, AK

4:24 PM HST on January 16, 2018 (GMT -1000)
False Pass

Weather History for PAKF - April, 2013

Change the Weather History Date:

Saturday, April 27, 2013

  Actual Average (PACD) Record (PACD)
Temperature  
Mean Temperature 37 °F -  
Max Temperature 32 °F 40 °F 49 °F (2003)
Min Temperature 30 °F 31 °F 19 °F (1976)
Degree Days  
Heating Degree Days 28    
Moisture  
Dew Point 27 °F    
Average Humidity 75    
Maximum Humidity 93    
Minimum Humidity 26    
Precipitation  
Precipitation 0.02 in - - ()
Sea Level Pressure  
Sea Level Pressure 30.33 in    
Wind  
Wind Speed 15 mph (WNW)    
Max Wind Speed 24 mph    
Max Gust Speed 38 mph    
Visibility 6 miles    
Events Rain , Snow    
Averages and records for this station are not official NWS values.
T = Trace of Precipitation, MM = Missing Value Source: NWS Daily Summary

Daily Weather History Graph

Daily Weather History Graph

Search for Another Location

Airport or City:

Trip Planner

Search our weather history database for the weather conditions in past years. The results will help you decide how hot, cold, wet, or windy it might be!

Date:

Astronomy

Apr. 27, 2013 Rise Set
Actual Time 6:21 AM HDT 9:21 PM HDT
Civil Twilight 5:40 AM HDT 10:03 PM HDT
Nautical Twilight 4:44 AM HDT 10:59 PM HDT
Astronomical Twilight 3:30 AM HDT 12:15 AM HDT
Moon No Moon Rise 7:34 AM HDT (4/27)
Length of Visible Light 16h 23m
Length of Day
15h 00m
Waning Gibbous, 94% of the Moon is Illuminated
Apr 27
Waning Gibbous
May 2
Last Quarter
May 9
New
May 17
First Quarter
May 24
Full

Hourly Weather History & Observations

Time (HDT) Temp. Windchill Dew Point Humidity Pressure Visibility Wind Dir Wind Speed Gust Speed Precip Events Conditions
12:01 AM 43.0 °F 39.5 °F 10.0 °F 26% 30.34 in 10.0 mi Variable 5.8 mph - N/A   Overcast
12:50 AM 42.8 °F 34.8 °F 15.8 °F 34% 30.04 in 10.0 mi SW 17.3 mph 24.2 mph 0.00 in   Overcast
1:01 AM 44.1 °F 40.8 °F 19.0 °F 37% 30.32 in 10.0 mi Variable 5.8 mph 16.1 mph 0.00 in   Overcast
1:20 AM 42.8 °F 35.1 °F 21.2 °F 42% 30.03 in 10.0 mi SW 16.1 mph 24.2 mph N/A   Overcast
2:01 AM 41.0 °F 34.3 °F 23.0 °F 49% 30.32 in 10.0 mi SW 11.5 mph 24.2 mph 0.00 in   Overcast
2:43 AM 42.8 °F 36.6 °F 26.6 °F 53% 30.04 in 10.0 mi West 11.5 mph 24.2 mph N/A   Overcast
3:01 AM 41.0 °F 31.4 °F 24.1 °F 51% 30.33 in 10.0 mi WSW 21.9 mph 29.9 mph N/A   Overcast
4:01 AM 37.9 °F 27.1 °F 32.0 °F 79% 30.32 in 9.0 mi WSW 23.0 mph 38.0 mph 0.00 in Rain Light Rain
5:01 AM 36.0 °F 24.7 °F 33.1 °F 89% 30.34 in 3.0 mi NW 21.9 mph 35.7 mph 0.00 in Rain Light Rain
5:09 AM 35.6 °F 24.2 °F 32.0 °F 87% 30.06 in 2.5 mi West 21.9 mph 35.7 mph 0.00 in Rain Light Rain
5:21 AM 33.8 °F 23.5 °F 32.0 °F 93% 30.06 in 2.5 mi West 16.1 mph 33.4 mph 0.00 in Rain Light Rain
5:33 AM 33.8 °F 25.8 °F 32.0 °F 93% 30.07 in 4.0 mi NW 10.4 mph 25.3 mph 0.00 in Rain Light Rain
5:52 AM 33.8 °F 22.5 °F 30.2 °F 87% 30.07 in 2.0 mi WNW 19.6 mph 28.8 mph 0.00 in Snow Light Snow
6:01 AM 33.8 °F 24.3 °F 28.4 °F 81% 30.08 in 3.0 mi WNW 13.8 mph 23.0 mph 0.00 in Snow Light Snow
6:07 AM 33.1 °F 22.6 °F 28.9 °F 85% 30.37 in 3.0 mi West 16.1 mph 21.9 mph 0.00 in Snow Light Snow
6:53 AM 33.8 °F 23.9 °F 28.4 °F 81% 30.10 in 9.0 mi West 15.0 mph 29.9 mph 0.00 in   Overcast
7:01 AM 33.1 °F 23.4 °F 27.0 °F 78% 30.40 in 10.0 mi West 13.8 mph 21.9 mph 0.00 in Rain Light Rain
8:01 AM 34.0 °F 24.2 °F 28.0 °F 79% 30.40 in 10.0 mi West 15.0 mph 31.1 mph 0.00 in Rain Light Rain
8:25 AM 33.8 °F 23.9 °F 28.4 °F 81% 30.13 in 1.8 mi West 15.0 mph 29.9 mph 0.00 in Rain Light Rain
8:52 AM 35.6 °F 25.2 °F 28.4 °F 75% 30.14 in 3.0 mi West 18.4 mph 32.2 mph 0.00 in Snow Light Snow
9:01 AM 35.1 °F 24.5 °F 28.9 °F 78% 30.43 in 3.0 mi West 18.4 mph 26.5 mph 0.00 in Snow Light Snow
9:16 AM 35.6 °F 25.2 °F 30.2 °F 81% 30.15 in 2.5 mi West 18.4 mph 23.0 mph 0.00 in Rain Light Rain
9:20 AM 35.6 °F 24.8 °F 30.2 °F 81% 30.15 in 1.5 mi WNW 19.6 mph 27.6 mph 0.00 in Snow Light Snow
9:50 AM 33.8 °F 23.2 °F 30.2 °F 87% 30.18 in 2.5 mi West 17.3 mph 25.3 mph 0.00 in Rain Light Rain
9:59 AM 33.8 °F 23.9 °F 30.2 °F 87% 30.18 in 1.8 mi West 15.0 mph 29.9 mph 0.00 in Rain Light Rain
10:01 AM 34.0 °F 23.8 °F 30.9 °F 89% 30.47 in 1.5 mi West 16.1 mph 25.3 mph 0.00 in Rain Rain
10:13 AM 33.8 °F 23.2 °F 30.2 °F 87% 30.18 in 0.8 mi WNW 17.3 mph 25.3 mph 0.00 in Snow Light Snow
10:25 AM 33.8 °F 22.8 °F 32.0 °F 93% 30.19 in 1.2 mi NW 18.4 mph 27.6 mph 0.01 in Snow Light Snow
10:36 AM 33.8 °F 22.2 °F 30.2 °F 87% 30.19 in 1.5 mi NW 20.7 mph 31.1 mph 0.01 in Snow Light Snow
10:45 AM 33.8 °F 22.5 °F 30.2 °F 87% 30.20 in 2.5 mi NW 19.6 mph 32.2 mph 0.01 in Snow Light Snow
10:50 AM 33.8 °F 22.2 °F 30.2 °F 87% 30.21 in 4.0 mi NW 20.7 mph 32.2 mph 0.01 in Rain Light Rain
11:01 AM 32.0 °F 19.2 °F 28.9 °F 88% 30.51 in 4.0 mi NW 23.0 mph 35.7 mph 0.01 in Rain Light Rain
11:51 AM 32.0 °F 19.5 °F 28.4 °F 87% 30.24 in 10.0 mi WNW 21.9 mph 33.4 mph 0.00 in   Overcast
12:01 PM 33.1 °F 20.9 °F 27.0 °F 78% 30.53 in 10.0 mi NW 21.9 mph 28.8 mph 0.00 in   Overcast
1:01 PM 30.9 °F 17.5 °F 26.1 °F 82% 30.55 in 10.0 mi WNW 24.2 mph 35.7 mph 0.00 in   Overcast
2:01 PM 32.0 °F 20.5 °F 25.0 °F 75% 30.56 in 10.0 mi West 18.4 mph 29.9 mph 0.00 in   Overcast
3:01 PM 32.0 °F 19.2 °F 25.0 °F 75% 30.59 in 10.0 mi WNW 23.0 mph 35.7 mph 0.00 in   Overcast
4:01 PM 32.0 °F 20.8 °F 24.1 °F 73% 30.62 in 10.0 mi WNW 17.3 mph 33.4 mph N/A   Overcast
5:01 PM 32.0 °F 21.2 °F 24.1 °F 73% 30.64 in 10.0 mi NW 16.1 mph 26.5 mph N/A   Overcast
6:01 PM 32.0 °F 20.8 °F 25.0 °F 75% 30.65 in 10.0 mi NW 17.3 mph 28.8 mph N/A   Overcast
7:01 PM 32.0 °F 21.6 °F 25.0 °F 75% 30.66 in 10.0 mi WNW 15.0 mph 27.6 mph N/A   Overcast
8:01 PM 32.0 °F 23.0 °F 26.1 °F 79% 30.68 in 10.0 mi WNW 11.5 mph 25.3 mph N/A   Overcast
9:01 PM 32.0 °F 20.8 °F 26.1 °F 79% 30.69 in 10.0 mi WNW 17.3 mph 35.7 mph 0.01 in   Overcast
10:01 PM 32.0 °F 20.1 °F 24.1 °F 73% 30.68 in 10.0 mi West 19.6 mph 29.9 mph N/A   Mostly Cloudy
10:29 PM 32.0 °F 19.2 °F 23.0 °F 69% 30.40 in 10.0 mi West 23.0 mph 38.0 mph N/A   Partly Cloudy
11:01 PM 33.1 °F 21.2 °F 21.9 °F 64% 30.71 in 10.0 mi West 20.7 mph 34.5 mph N/A   Clear